Time,TemperatureF,DewpointF,PressureIn,WindDirection,WindDirectionDegrees,WindSpeedMPH,WindSpeedGustMPH,Humidity,HourlyPrecipIn,Conditions,Clouds,dailyrainin,SoftwareType,DateUTC
2013-05-08 00:09:00,59.8,58.0,29.89,ESE,117,1.0,7.0,94,0.05,,,0.02,weatherlink.com 1.10,2013-05-08 04:09:00,
2013-05-08 00:24:00,59.5,58.0,29.90,SE,129,0.0,6.0,95,0.09,,,0.06,weatherlink.com 1.10,2013-05-08 04:24:00,
2013-05-08 00:39:00,59.1,57.0,29.91,SW,229,2.0,4.0,94,0.09,,,0.08,weatherlink.com 1.10,2013-05-08 04:39:00,
2013-05-08 00:54:00,57.4,55.0,29.91,South,175,0.0,6.0,93,0.13,,,0.13,weatherlink.com 1.10,2013-05-08 04:54:00,
2013-05-08 01:09:00,56.4,55.0,29.91,WNW,286,2.0,3.0,94,0.13,,,0.16,weatherlink.com 1.10,2013-05-08 05:09:00,
2013-05-08 01:24:00,55.8,54.0,29.90,WNW,294,0.0,2.0,94,0.10,,,0.16,weatherlink.com 1.10,2013-05-08 05:24:00,
2013-05-08 01:39:00,55.3,54.0,29.90,WNW,294,0.0,0.0,94,0.07,,,0.16,weatherlink.com 1.10,2013-05-08 05:39:00,
2013-05-08 01:54:00,54.9,54.0,29.89,WNW,294,0.0,0.0,95,0.03,,,0.16,weatherlink.com 1.10,2013-05-08 05:54:00,
2013-05-08 02:09:00,54.5,53.0,29.89,WNW,294,0.0,0.0,96,0.00,,,0.16,weatherlink.com 1.10,2013-05-08 06:09:00,
2013-05-08 02:24:00,54.3,53.0,29.89,WNW,294,0.0,0.0,96,0.00,,,0.16,weatherlink.com 1.10,2013-05-08 06:24:00,
2013-05-08 02:39:00,54.3,54.0,29.88,WNW,294,0.0,0.0,97,0.00,,,0.16,weatherlink.com 1.10,2013-05-08 06:39:00,
2013-05-08 02:54:00,54.3,54.0,29.88,WNW,294,0.0,0.0,97,0.00,,,0.16,weatherlink.com 1.10,2013-05-08 06:54:00,
2013-05-08 03:09:00,54.2,53.0,29.88,WNW,294,0.0,0.0,97,0.00,,,0.16,weatherlink.com 1.10,2013-05-08 07:09:00,
2013-05-08 03:24:00,54.1,53.0,29.88,WNW,294,0.0,0.0,97,0.00,,,0.16,weatherlink.com 1.10,2013-05-08 07:24:00,
2013-05-08 03:39:00,53.9,53.0,29.89,WNW,294,0.0,0.0,97,0.00,,,0.16,weatherlink.com 1.10,2013-05-08 07:39:00,
2013-05-08 03:54:00,53.3,52.0,29.89,WNW,294,0.0,0.0,96,0.00,,,0.16,weatherlink.com 1.10,2013-05-08 07:54:00,
2013-05-08 04:09:00,52.9,52.0,29.89,WNW,294,0.0,1.0,96,0.00,,,0.16,weatherlink.com 1.10,2013-05-08 08:09:00,
2013-05-08 04:24:00,52.8,52.0,29.89,WNW,294,0.0,0.0,97,0.00,,,0.16,weatherlink.com 1.10,2013-05-08 08:24:00,
2013-05-08 04:39:00,52.6,52.0,29.89,WNW,294,0.0,0.0,97,0.00,,,0.16,weatherlink.com 1.10,2013-05-08 08:39:00,
2013-05-08 04:54:00,52.4,52.0,29.89,WNW,294,0.0,1.0,97,0.00,,,0.16,weatherlink.com 1.10,2013-05-08 08:54:00,
2013-05-08 05:09:00,52.6,52.0,29.89,WNW,294,0.0,1.0,97,0.00,,,0.16,weatherlink.com 1.10,2013-05-08 09:09:00,
2013-05-08 05:24:00,52.7,52.0,29.89,WNW,294,0.0,0.0,97,0.00,,,0.16,weatherlink.com 1.10,2013-05-08 09:24:00,
2013-05-08 05:39:00,52.7,52.0,29.89,WNW,294,0.0,0.0,97,0.00,,,0.16,weatherlink.com 1.10,2013-05-08 09:39:00,
2013-05-08 05:54:00,52.5,52.0,29.89,WNW,294,0.0,0.0,97,0.00,,,0.16,weatherlink.com 1.10,2013-05-08 09:54:00,
2013-05-08 06:09:00,52.2,51.0,29.90,WNW,294,0.0,1.0,97,0.00,,,0.16,weatherlink.com 1.10,2013-05-08 10:09:00,
2013-05-08 06:24:00,52.3,52.0,29.90,WNW,294,0.0,0.0,98,0.00,,,0.16,weatherlink.com 1.10,2013-05-08 10:24:00,
2013-05-08 06:39:00,52.5,52.0,29.90,WNW,294,0.0,0.0,98,0.00,,,0.16,weatherlink.com 1.10,2013-05-08 10:39:00,
2013-05-08 06:54:00,52.8,52.0,29.91,WNW,294,0.0,0.0,98,0.00,,,0.16,weatherlink.com 1.10,2013-05-08 10:54:00,
2013-05-08 07:09:00,53.5,53.0,29.91,WNW,294,0.0,2.0,98,0.00,,,0.16,weatherlink.com 1.10,2013-05-08 11:09:00,
2013-05-08 07:24:00,54.7,54.0,29.92,WNW,294,0.0,1.0,98,0.00,,,0.16,weatherlink.com 1.10,2013-05-08 11:24:00,
2013-05-08 07:39:00,55.0,55.0,29.92,WNW,294,0.0,0.0,98,0.00,,,0.16,weatherlink.com 1.10,2013-05-08 11:39:00,
2013-05-08 07:54:00,56.6,56.0,29.93,WNW,294,0.0,2.0,98,0.00,,,0.16,weatherlink.com 1.10,2013-05-08 11:54:00,
2013-05-08 08:09:00,57.8,57.0,29.93,WNW,294,0.0,3.0,98,0.00,,,0.16,weatherlink.com 1.10,2013-05-08 12:09:00,
2013-05-08 08:24:00,59.7,59.0,29.93,WNW,294,0.0,1.0,98,0.00,,,0.16,weatherlink.com 1.10,2013-05-08 12:24:00,
2013-05-08 08:39:00,59.5,58.0,29.93,WNW,294,0.0,1.0,93,0.00,,,0.16,weatherlink.com 1.10,2013-05-08 12:39:00,
2013-05-08 08:54:00,59.3,57.0,29.94,WNW,294,0.0,0.0,93,0.00,,,0.16,weatherlink.com 1.10,2013-05-08 12:54:00,
2013-05-08 09:09:00,60.6,59.0,29.93,WNW,294,0.0,-999.0,93,-99.99,,,0.16,weatherlink.com 1.10,2013-05-08 13:09:00,
2013-05-08 09:24:00,62.4,59.0,29.93,East,100,1.0,3.0,89,0.00,,,0.16,weatherlink.com 1.10,2013-05-08 13:24:00,
2013-05-08 09:39:00,63.3,59.0,29.93,ESE,110,0.0,2.0,85,0.00,,,0.16,weatherlink.com 1.10,2013-05-08 13:39:00,
2013-05-08 09:55:00,62.1,57.0,29.93,ESE,105,0.0,3.0,84,0.00,,,0.16,weatherlink.com 1.10,2013-05-08 13:55:00,
2013-05-08 10:10:00,61.6,56.0,29.93,SE,133,2.0,3.0,83,0.00,,,0.16,weatherlink.com 1.10,2013-05-08 14:10:00,
2013-05-08 10:25:00,61.6,57.0,29.93,East,96,0.0,1.0,85,0.00,,,0.16,weatherlink.com 1.10,2013-05-08 14:25:00,
2013-05-08 10:40:00,62.5,58.0,29.93,East,96,0.0,1.0,85,0.00,,,0.16,weatherlink.com 1.10,2013-05-08 14:40:00,
2013-05-08 10:55:00,64.1,56.0,29.93,ESE,103,0.0,2.0,75,0.00,,,0.16,weatherlink.com 1.10,2013-05-08 14:55:00,
2013-05-08 11:10:00,64.0,57.0,29.92,SW,217,0.0,3.0,77,0.00,,,0.16,weatherlink.com 1.10,2013-05-08 15:10:00,
2013-05-08 11:25:00,64.5,58.0,29.92,West,270,1.0,3.0,80,0.00,,,0.16,weatherlink.com 1.10,2013-05-08 15:25:00,
2013-05-08 11:40:00,67.0,58.0,29.92,ESE,104,3.0,4.0,74,0.00,,,0.16,weatherlink.com 1.10,2013-05-08 15:40:00,
2013-05-08 11:55:00,67.2,57.0,29.91,ESE,117,3.0,3.0,71,0.00,,,0.16,weatherlink.com 1.10,2013-05-08 15:55:00,
2013-05-08 12:10:00,68.5,57.0,29.91,ESE,118,2.0,4.0,68,0.00,,,0.16,weatherlink.com 1.10,2013-05-08 16:10:00,
2013-05-08 12:25:00,70.1,60.0,29.91,SSE,165,0.0,5.0,71,0.00,,,0.16,weatherlink.com 1.10,2013-05-08 16:25:00,
2013-05-08 12:40:00,69.0,57.0,29.90,SE,128,2.0,4.0,65,0.00,,,0.16,weatherlink.com 1.10,2013-05-08 16:40:00,
2013-05-08 12:55:00,68.9,56.0,29.90,East,86,0.0,2.0,63,0.00,,,0.16,weatherlink.com 1.10,2013-05-08 16:55:00,
2013-05-08 13:10:00,68.8,56.0,29.89,NW,311,0.0,4.0,65,0.00,,,0.16,weatherlink.com 1.10,2013-05-08 17:10:00,
2013-05-08 13:25:00,69.8,57.0,29.89,NW,319,2.0,5.0,64,0.00,,,0.16,weatherlink.com 1.10,2013-05-08 17:25:00,
2013-05-08 13:40:00,69.6,56.0,29.88,NNW,340,0.0,2.0,63,0.00,,,0.16,weatherlink.com 1.10,2013-05-08 17:40:00,
2013-05-08 13:55:00,69.7,56.0,29.88,NW,309,2.0,4.0,62,0.00,,,0.16,weatherlink.com 1.10,2013-05-08 17:55:00,
2013-05-08 14:10:00,70.3,55.0,29.87,North,355,0.0,3.0,59,0.00,,,0.16,weatherlink.com 1.10,2013-05-08 18:10:00,
2013-05-08 14:25:00,69.7,56.0,29.87,SE,133,0.0,4.0,62,0.00,,,0.16,weatherlink.com 1.10,2013-05-08 18:25:00,
2013-05-08 14:40:00,69.5,56.0,29.86,SSW,193,0.0,2.0,62,0.00,,,0.16,weatherlink.com 1.10,2013-05-08 18:40:00,
2013-05-08 14:55:00,69.8,56.0,29.86,NNE,15,0.0,5.0,61,0.00,,,0.16,weatherlink.com 1.10,2013-05-08 18:55:00,
2013-05-08 15:10:00,69.4,56.0,29.86,ESE,115,0.0,4.0,62,0.00,,,0.16,weatherlink.com 1.10,2013-05-08 19:10:00,
2013-05-08 15:25:00,68.5,57.0,29.86,ENE,63,0.0,5.0,66,0.00,,,0.16,weatherlink.com 1.10,2013-05-08 19:25:00,
2013-05-08 15:40:00,69.3,57.0,29.85,ENE,70,0.0,5.0,65,0.00,,,0.16,weatherlink.com 1.10,2013-05-08 19:40:00,
2013-05-08 15:56:00,70.2,57.0,29.85,SSW,211,2.0,3.0,64,0.00,,,0.16,weatherlink.com 1.10,2013-05-08 19:56:00,
2013-05-08 16:10:00,68.8,54.0,29.86,East,89,0.0,3.0,59,0.00,,,0.16,weatherlink.com 1.10,2013-05-08 20:10:00,
2013-05-08 16:25:00,66.3,54.0,29.86,East,93,1.0,7.0,64,0.00,,,0.16,weatherlink.com 1.10,2013-05-08 20:25:00,
2013-05-08 16:40:00,64.6,53.0,29.86,ESE,118,1.0,6.0,67,0.00,,,0.16,weatherlink.com 1.10,2013-05-08 20:40:00,
2013-05-08 16:55:00,64.7,53.0,29.86,East,92,0.0,2.0,65,0.00,,,0.16,weatherlink.com 1.10,2013-05-08 20:55:00,
2013-05-08 17:10:00,65.3,53.0,29.87,East,92,0.0,1.0,65,0.00,,,0.16,weatherlink.com 1.10,2013-05-08 21:10:00,
2013-05-08 17:25:00,66.4,55.0,29.87,WSW,240,0.0,3.0,66,0.00,,,0.16,weatherlink.com 1.10,2013-05-08 21:25:00,
2013-05-08 17:40:00,65.7,55.0,29.87,SSW,194,4.0,6.0,68,0.00,,,0.16,weatherlink.com 1.10,2013-05-08 21:40:00,
2013-05-08 17:55:00,64.9,54.0,29.86,North,9,1.0,5.0,69,0.00,,,0.16,weatherlink.com 1.10,2013-05-08 21:55:00,
2013-05-08 18:10:00,65.6,54.0,29.86,NE,51,0.0,3.0,66,0.00,,,0.16,weatherlink.com 1.10,2013-05-08 22:10:00,
2013-05-08 18:25:00,65.4,54.0,29.86,South,181,0.0,5.0,67,0.00,,,0.16,weatherlink.com 1.10,2013-05-08 22:25:00,
2013-05-08 18:40:00,65.0,55.0,29.86,ENE,63,0.0,3.0,70,0.00,,,0.16,weatherlink.com 1.10,2013-05-08 22:40:00,
2013-05-08 18:55:00,64.3,56.0,29.87,West,279,0.0,2.0,74,0.00,,,0.16,weatherlink.com 1.10,2013-05-08 22:55:00,
2013-05-08 19:10:00,64.4,55.0,29.87,ENE,78,0.0,1.0,72,0.00,,,0.16,weatherlink.com 1.10,2013-05-08 23:10:00,
2013-05-08 19:25:00,63.7,53.0,29.87,West,275,1.0,3.0,68,0.00,,,0.16,weatherlink.com 1.10,2013-05-08 23:25:00,
2013-05-08 19:40:00,63.0,54.0,29.87,ENE,73,0.0,1.0,72,0.00,,,0.16,weatherlink.com 1.10,2013-05-08 23:40:00,
2013-05-08 19:55:00,62.4,54.0,29.87,SSE,164,0.0,0.0,74,0.00,,,0.16,weatherlink.com 1.10,2013-05-08 23:55:00,
2013-05-08 20:10:00,61.6,54.0,29.87,SSE,164,0.0,0.0,76,0.00,,,0.16,weatherlink.com 1.10,2013-05-09 00:10:00,
2013-05-08 20:25:00,60.7,54.0,29.87,SSE,164,0.0,1.0,79,0.00,,,0.16,weatherlink.com 1.10,2013-05-09 00:25:00,
2013-05-08 20:41:00,59.7,54.0,29.87,SSE,164,0.0,0.0,82,0.00,,,0.16,weatherlink.com 1.10,2013-05-09 00:41:00,
2013-05-08 20:55:00,58.8,54.0,29.87,SSE,164,0.0,1.0,83,0.00,,,0.16,weatherlink.com 1.10,2013-05-09 00:55:00,
2013-05-08 21:10:00,58.0,54.0,29.87,West,267,0.0,1.0,86,0.00,,,0.16,weatherlink.com 1.10,2013-05-09 01:10:00,
2013-05-08 21:25:00,57.5,54.0,29.88,West,267,0.0,0.0,89,0.00,,,0.16,weatherlink.com 1.10,2013-05-09 01:25:00,
2013-05-08 21:41:00,57.3,54.0,29.89,West,267,0.0,1.0,88,0.00,,,0.16,weatherlink.com 1.10,2013-05-09 01:41:00,
2013-05-08 21:56:00,57.3,54.0,29.90,West,267,0.0,0.0,87,0.00,,,0.16,weatherlink.com 1.10,2013-05-09 01:56:00,
2013-05-08 22:11:00,57.3,54.0,29.90,West,267,0.0,0.0,87,0.00,,,0.16,weatherlink.com 1.10,2013-05-09 02:11:00,
2013-05-08 22:26:00,57.3,54.0,29.90,West,267,0.0,1.0,88,0.00,,,0.16,weatherlink.com 1.10,2013-05-09 02:26:00,
2013-05-08 22:41:00,57.2,54.0,29.90,West,267,0.0,0.0,88,0.00,,,0.16,weatherlink.com 1.10,2013-05-09 02:41:00,
2013-05-08 22:56:00,56.8,53.0,29.90,SSE,147,0.0,0.0,87,0.00,,,0.16,weatherlink.com 1.10,2013-05-09 02:56:00,
2013-05-08 23:11:00,56.0,53.0,29.89,SSE,147,0.0,0.0,89,0.00,,,0.16,weatherlink.com 1.10,2013-05-09 03:11:00,
2013-05-08 23:26:00,54.9,52.0,29.89,SSE,147,0.0,0.0,90,0.00,,,0.16,weatherlink.com 1.10,2013-05-09 03:26:00,
2013-05-08 23:41:00,54.1,52.0,29.89,SSE,147,0.0,0.0,92,0.00,,,0.16,weatherlink.com 1.10,2013-05-09 03:41:00,
2013-05-08 23:56:00,53.2,51.0,29.89,SSE,147,0.0,0.0,92,0.00,,,0.16,weatherlink.com 1.10,2013-05-09 03:56:00,